Time,TemperatureF,DewpointF,PressureIn,WindDirection,WindDirectionDegrees,WindSpeedMPH,WindSpeedGustMPH,Humidity,HourlyPrecipIn,Conditions,Clouds,dailyrainin,SoftwareType,DateUTC
2013-07-27 06:40:00,65.7,65.1,30.05,NW,308,0.0,1.0,98,0.00,,,0.00,Wunderground v.1.15,2013-07-27 10:40:00,
2013-07-27 06:50:00,65.8,65.2,30.05,NW,308,0.0,1.0,98,0.00,,,0.00,Wunderground v.1.15,2013-07-27 10:50:00,
2013-07-27 07:00:00,66.2,65.9,30.06,NW,308,0.0,1.0,99,0.00,,,0.00,Wunderground v.1.15,2013-07-27 11:00:00,
2013-07-27 07:10:00,66.7,66.4,30.06,NW,308,0.0,1.0,99,0.00,,,0.00,Wunderground v.1.15,2013-07-27 11:10:00,
2013-07-27 07:20:00,67.6,67.3,30.06,NW,308,0.0,1.0,99,0.00,,,0.00,Wunderground v.1.15,2013-07-27 11:20:00,
2013-07-27 07:30:00,68.3,68.0,30.06,ENE,68,0.0,1.0,99,0.00,,,0.00,Wunderground v.1.15,2013-07-27 11:30:00,
2013-07-27 07:40:00,69.1,68.2,30.07,ENE,69,0.0,1.0,97,0.00,,,0.00,Wunderground v.1.15,2013-07-27 11:40:00,
2013-07-27 07:50:00,69.8,68.3,30.07,ENE,70,0.0,1.0,95,0.00,,,0.00,Wunderground v.1.15,2013-07-27 11:50:00,
2013-07-27 08:00:00,70.4,68.3,30.07,East,87,0.0,0.0,93,0.00,,,0.00,Wunderground v.1.15,2013-07-27 12:00:00,
2013-07-27 08:10:00,71.5,68.7,30.07,East,101,0.0,3.0,91,0.00,,,0.00,Wunderground v.1.15,2013-07-27 12:10:00,
2013-07-27 08:20:00,72.7,68.9,30.07,East,86,1.0,1.0,88,0.00,,,0.00,Wunderground v.1.15,2013-07-27 12:20:00,
2013-07-27 08:30:00,74.0,69.5,30.07,East,81,1.0,3.0,86,0.00,,,0.00,Wunderground v.1.15,2013-07-27 12:30:00,
2013-07-27 08:40:00,74.5,69.3,30.07,NNW,335,1.0,3.0,84,0.00,,,0.00,Wunderground v.1.15,2013-07-27 12:40:00,
2013-07-27 08:50:00,75.0,69.5,30.07,East,89,1.0,3.0,83,0.00,,,0.00,Wunderground v.1.15,2013-07-27 12:50:00,
2013-07-27 09:00:00,75.7,69.8,30.07,East,94,1.0,3.0,82,0.00,,,0.00,Wunderground v.1.15,2013-07-27 13:00:00,
2013-07-27 09:10:00,76.1,69.5,30.07,NNW,328,1.0,1.0,80,0.00,,,0.00,Wunderground v.1.15,2013-07-27 13:10:00,
2013-07-27 09:20:00,77.1,69.7,30.07,ENE,67,1.0,3.0,78,0.00,,,0.00,Wunderground v.1.15,2013-07-27 13:20:00,
2013-07-27 09:30:00,77.5,68.9,30.07,ENE,68,1.0,3.0,75,0.00,,,0.00,Wunderground v.1.15,2013-07-27 13:30:00,
2013-07-27 09:40:00,78.2,69.2,30.07,NE,44,1.0,5.0,74,0.10,,,0.16,Wunderground v.1.15,2013-07-27 13:40:00,
2013-07-27 09:50:00,78.3,68.9,30.06,ENE,63,2.0,2.0,73,0.04,,,0.16,Wunderground v.1.15,2013-07-27 13:50:00,
2013-07-27 10:00:00,77.7,68.7,30.07,ENE,65,1.0,3.0,74,0.00,,,0.16,Wunderground v.1.15,2013-07-27 14:00:00,
2013-07-27 10:10:00,77.9,68.9,30.07,East,84,2.0,3.0,74,0.00,,,0.16,Wunderground v.1.15,2013-07-27 14:10:00,
2013-07-27 10:20:00,78.5,69.5,30.07,SE,129,2.0,2.0,74,0.00,,,0.16,Wunderground v.1.15,2013-07-27 14:20:00,
2013-07-27 10:30:00,79.1,69.7,30.07,West,281,3.0,3.0,73,8.86,,,0.13,Wunderground v.1.15,2013-07-27 14:30:00,
2013-07-27 10:40:00,-999.9,-99.9,30.07,East,100,1.0,3.0,255,0.09,,,0.00,Wunderground v.1.15,2013-07-27 14:40:00,
2013-07-27 10:50:00,80.4,67.6,30.07,East,98,1.0,3.0,65,0.04,,,0.00,Wunderground v.1.15,2013-07-27 14:50:00,
2013-07-27 11:00:00,80.6,69.5,30.07,East,91,1.0,1.0,69,0.00,,,0.00,Wunderground v.1.15,2013-07-27 15:00:00,
2013-07-27 11:10:00,80.9,68.5,30.07,ESE,112,2.0,3.0,66,0.00,,,0.00,Wunderground v.1.15,2013-07-27 15:10:00,
2013-07-27 11:20:00,81.2,68.8,30.06,NE,56,2.0,2.0,66,0.00,,,0.00,Wunderground v.1.15,2013-07-27 15:20:00,
2013-07-27 11:30:00,81.7,69.2,30.06,East,80,2.0,3.0,66,0.00,,,0.00,Wunderground v.1.15,2013-07-27 15:30:00,
2013-07-27 11:40:00,82.1,67.8,30.06,East,82,2.0,3.0,62,0.00,,,0.00,Wunderground v.1.15,2013-07-27 15:40:00,
2013-07-27 11:50:00,83.0,68.6,30.06,NNE,29,1.0,5.0,62,0.00,,,0.00,Wunderground v.1.15,2013-07-27 15:50:00,
2013-07-27 12:00:00,82.5,69.1,30.05,ESE,118,2.0,2.0,64,0.00,,,0.00,Wunderground v.1.15,2013-07-27 16:00:00,
2013-07-27 12:10:00,82.2,67.4,30.05,ENE,72,2.0,3.0,61,0.00,,,0.00,Wunderground v.1.15,2013-07-27 16:10:00,
2013-07-27 12:20:00,83.2,69.8,30.05,East,94,1.0,3.0,64,0.00,,,0.00,Wunderground v.1.15,2013-07-27 16:20:00,
2013-07-27 12:30:00,83.0,69.1,30.05,NNE,33,1.0,1.0,63,0.00,,,0.00,Wunderground v.1.15,2013-07-27 16:30:00,
2013-07-27 12:40:00,83.2,68.8,30.04,East,90,0.0,3.0,62,0.00,,,0.00,Wunderground v.1.15,2013-07-27 16:40:00,
2013-07-27 12:50:00,83.2,68.3,30.04,East,89,1.0,3.0,61,0.00,,,0.00,Wunderground v.1.15,2013-07-27 16:50:00,
2013-07-27 13:00:00,83.2,67.4,30.04,ESE,103,1.0,1.0,59,0.00,,,0.00,Wunderground v.1.15,2013-07-27 17:00:00,
2013-07-27 13:10:00,83.7,67.4,30.03,NE,42,1.0,1.0,58,0.00,,,0.00,Wunderground v.1.15,2013-07-27 17:10:00,
2013-07-27 13:20:00,83.4,68.5,30.03,ESE,103,1.0,1.0,61,0.00,,,0.00,Wunderground v.1.15,2013-07-27 17:20:00,
2013-07-27 13:30:00,83.9,69.5,30.02,East,96,1.0,1.0,62,0.00,,,0.00,Wunderground v.1.15,2013-07-27 17:30:00,
2013-07-27 13:40:00,84.3,67.9,30.02,East,87,1.0,3.0,58,0.00,,,0.00,Wunderground v.1.15,2013-07-27 17:40:00,
2013-07-27 13:50:00,84.3,67.9,30.01,NE,46,1.0,3.0,58,0.00,,,0.00,Wunderground v.1.15,2013-07-27 17:50:00,
2013-07-27 14:00:00,84.1,70.1,30.01,NE,55,1.0,1.0,63,0.00,,,0.00,Wunderground v.1.15,2013-07-27 18:00:00,
2013-07-27 14:10:00,83.9,70.4,30.00,SW,221,0.0,3.0,64,0.00,,,0.00,Wunderground v.1.15,2013-07-27 18:10:00,
2013-07-27 14:20:00,83.7,69.8,30.00,ESE,102,1.0,1.0,63,0.00,,,0.00,Wunderground v.1.15,2013-07-27 18:20:00,
2013-07-27 14:30:00,84.5,68.6,29.99,NNE,14,1.0,3.0,59,0.00,,,0.00,Wunderground v.1.15,2013-07-27 18:30:00,
2013-07-27 14:40:00,84.0,70.5,29.99,WSW,252,2.0,2.0,64,0.00,,,0.00,Wunderground v.1.15,2013-07-27 18:40:00,
2013-07-27 14:50:00,83.4,69.9,29.98,NW,325,1.0,3.0,64,0.00,,,0.00,Wunderground v.1.15,2013-07-27 18:50:00,
2013-07-27 15:00:00,83.6,69.2,29.98,ESE,113,1.0,1.0,62,0.00,,,0.00,Wunderground v.1.15,2013-07-27 19:00:00,
2013-07-27 15:10:00,84.7,68.8,29.98,East,89,1.0,1.0,59,0.00,,,0.00,Wunderground v.1.15,2013-07-27 19:10:00,
2013-07-27 15:20:00,85.8,72.2,29.97,ESE,122,1.0,1.0,64,0.00,,,0.00,Wunderground v.1.15,2013-07-27 19:20:00,
2013-07-27 15:30:00,85.2,68.2,29.97,East,94,1.0,3.0,57,0.00,,,0.00,Wunderground v.1.15,2013-07-27 19:30:00,
2013-07-27 15:40:00,85.2,68.8,29.98,NE,53,1.0,3.0,58,0.00,,,0.00,Wunderground v.1.15,2013-07-27 19:40:00,
2013-07-27 15:50:00,84.4,69.5,29.98,NW,307,1.0,3.0,61,0.00,,,0.00,Wunderground v.1.15,2013-07-27 19:50:00,
2013-07-27 16:00:00,83.4,68.1,29.97,ESE,103,1.0,3.0,60,0.00,,,0.00,Wunderground v.1.15,2013-07-27 20:00:00,
2013-07-27 16:10:00,83.5,69.1,29.97,ESE,110,1.0,3.0,62,0.00,,,0.00,Wunderground v.1.15,2013-07-27 20:10:00,
2013-07-27 16:20:00,84.3,67.4,29.98,SE,143,2.0,2.0,57,0.00,,,0.00,Wunderground v.1.15,2013-07-27 20:20:00,
2013-07-27 16:30:00,85.2,66.1,29.98,East,88,1.0,1.0,53,0.00,,,0.00,Wunderground v.1.15,2013-07-27 20:30:00,
2013-07-27 16:40:00,85.6,67.0,29.98,East,100,1.0,3.0,54,0.00,,,0.00,Wunderground v.1.15,2013-07-27 20:40:00,
2013-07-27 16:50:00,84.9,68.0,29.98,East,82,1.0,3.0,57,0.00,,,0.00,Wunderground v.1.15,2013-07-27 20:50:00,
2013-07-27 17:00:00,84.6,67.7,29.98,ESE,108,1.0,1.0,57,0.00,,,0.00,Wunderground v.1.15,2013-07-27 21:00:00,
2013-07-27 17:10:00,83.5,68.2,29.98,ENE,77,1.0,3.0,60,0.00,,,0.00,Wunderground v.1.15,2013-07-27 21:10:00,
2013-07-27 17:20:00,83.9,69.5,29.97,SE,141,1.0,1.0,62,0.00,,,0.00,Wunderground v.1.15,2013-07-27 21:20:00,
2013-07-27 17:30:00,84.2,69.3,29.97,NNW,342,1.0,3.0,61,0.00,,,0.00,Wunderground v.1.15,2013-07-27 21:30:00,
2013-07-27 17:40:00,84.0,70.0,29.97,ESE,112,2.0,3.0,63,0.00,,,0.00,Wunderground v.1.15,2013-07-27 21:40:00,
2013-07-27 17:50:00,83.9,70.0,29.97,NE,43,2.0,2.0,63,0.00,,,0.00,Wunderground v.1.15,2013-07-27 21:50:00,
2013-07-27 18:00:00,84.1,68.7,29.97,SW,228,1.0,1.0,60,0.00,,,0.00,Wunderground v.1.15,2013-07-27 22:00:00,
2013-07-27 18:10:00,84.0,68.1,29.97,East,89,1.0,1.0,59,0.00,,,0.00,Wunderground v.1.15,2013-07-27 22:10:00,
2013-07-27 18:20:00,83.0,67.2,29.97,NE,41,1.0,3.0,59,0.00,,,0.00,Wunderground v.1.15,2013-07-27 22:20:00,
2013-07-27 18:30:00,81.7,67.9,29.97,ENE,64,1.0,3.0,63,0.00,,,0.00,Wunderground v.1.15,2013-07-27 22:30:00,
2013-07-27 18:40:00,80.7,68.7,29.98,ENE,72,1.0,3.0,67,0.00,,,0.00,Wunderground v.1.15,2013-07-27 22:40:00,
2013-07-27 18:50:00,79.8,67.4,29.98,SSE,157,1.0,1.0,66,0.00,,,0.00,Wunderground v.1.15,2013-07-27 22:50:00,
2013-07-27 19:00:00,79.2,67.3,29.98,East,91,1.0,1.0,67,0.00,,,0.00,Wunderground v.1.15,2013-07-27 23:00:00,
2013-07-27 19:10:00,78.6,66.7,29.98,SE,128,0.0,3.0,67,0.00,,,0.00,Wunderground v.1.15,2013-07-27 23:10:00,
2013-07-27 19:20:00,78.1,66.7,29.98,SE,143,0.0,3.0,68,0.00,,,0.00,Wunderground v.1.15,2013-07-27 23:20:00,
2013-07-27 19:30:00,77.8,66.8,29.98,East,81,0.0,3.0,69,0.00,,,0.00,Wunderground v.1.15,2013-07-27 23:30:00,
2013-07-27 19:40:00,77.4,67.3,29.98,South,179,0.0,3.0,71,0.00,,,0.00,Wunderground v.1.15,2013-07-27 23:40:00,
2013-07-27 19:50:00,76.9,66.4,29.98,SE,127,0.0,3.0,70,0.00,,,0.00,Wunderground v.1.15,2013-07-27 23:50:00,
2013-07-27 20:00:00,76.5,66.0,29.98,SSE,167,0.0,3.0,70,0.00,,,0.00,Wunderground v.1.15,2013-07-28 00:00:00,
2013-07-27 20:10:00,76.1,65.6,29.98,SE,127,0.0,3.0,70,0.00,,,0.00,Wunderground v.1.15,2013-07-28 00:10:00,
2013-07-27 20:20:00,75.7,64.8,29.97,SSE,148,0.0,3.0,69,0.00,,,0.00,Wunderground v.1.15,2013-07-28 00:20:00,
2013-07-27 20:30:00,75.4,65.7,29.97,ESE,110,0.0,3.0,72,0.00,,,0.00,Wunderground v.1.15,2013-07-28 00:30:00,
2013-07-27 20:40:00,75.1,65.1,29.97,SE,146,0.0,3.0,71,0.00,,,0.00,Wunderground v.1.15,2013-07-28 00:40:00,
2013-07-27 20:50:00,74.9,64.9,29.97,South,188,0.0,3.0,71,0.00,,,0.00,Wunderground v.1.15,2013-07-28 00:50:00,
2013-07-27 21:00:00,74.7,65.1,29.97,East,96,0.0,3.0,72,0.00,,,0.00,Wunderground v.1.15,2013-07-28 01:00:00,
2013-07-27 21:10:00,74.4,64.8,29.96,South,188,0.0,3.0,72,0.00,,,0.00,Wunderground v.1.15,2013-07-28 01:10:00,
2013-07-27 21:20:00,74.0,64.8,29.96,SE,126,0.0,3.0,73,0.00,,,0.00,Wunderground v.1.15,2013-07-28 01:20:00,
2013-07-27 21:30:00,74.1,64.9,29.96,East,79,0.0,3.0,73,0.00,,,0.00,Wunderground v.1.15,2013-07-28 01:30:00,
2013-07-27 21:40:00,73.9,65.1,29.97,ESE,108,0.0,3.0,74,0.00,,,0.00,Wunderground v.1.15,2013-07-28 01:40:00,
2013-07-27 21:50:00,73.5,65.1,29.97,ESE,109,0.0,3.0,75,0.00,,,0.00,Wunderground v.1.15,2013-07-28 01:50:00,
2013-07-27 22:00:00,73.5,65.5,29.98,ESE,109,0.0,3.0,76,0.00,,,0.00,Wunderground v.1.15,2013-07-28 02:00:00,
2013-07-27 22:10:00,73.7,65.3,29.98,East,101,0.0,3.0,75,0.00,,,0.00,Wunderground v.1.15,2013-07-28 02:10:00,
2013-07-27 22:20:00,74.5,64.5,29.98,East,86,1.0,1.0,71,0.00,,,0.00,Wunderground v.1.15,2013-07-28 02:20:00,
2013-07-27 22:30:00,75.1,63.8,29.98,West,272,1.0,3.0,68,0.00,,,0.00,Wunderground v.1.15,2013-07-28 02:30:00,
2013-07-27 22:40:00,75.2,63.5,29.98,ENE,68,2.0,3.0,67,0.00,,,0.00,Wunderground v.1.15,2013-07-28 02:40:00,
2013-07-27 22:50:00,75.2,63.5,29.98,NE,34,2.0,3.0,67,0.00,,,0.00,Wunderground v.1.15,2013-07-28 02:50:00,